Location: Kikino
(54.4440°N, 112.0940°W)
Time: 20:05:20
(UTC+00:00)

A-11 Canister half - Pass Details

Date: 23 May 2024
Orbit: 1524 x 1684 km, 47.3° (Epoch: 14 May)

Event Time Altitude Azimuth Distance (km) Brightness Sun altitude
Rises 10:46:47 0° 284° (WNW) 4,789 11.3 -3.4°
Reaches altitude 10° 10:50:23 10° 273° (W) 3,826 10.7 -3.0°
Maximum altitude 10:58:11 28° 220° (SW) 2,695 9.8 -2.2°
Drops below altitude 10° 11:06:11 10° 166° (SSE) 3,910 10.9 -1.3°
Sets 11:09:55 0° 156° (SSE) 4,910 11.5 -0.8°
